sat.trackr.live / text

‹ back to catalog

STARLINK-34489

NORAD 64679 · 2025-139R

PAYLOAD ACTIVE UNKNOWN

§ Identity

Operator
Country
US
Launch date
2025-06-28
Launch site
AFETR
Launch vehicle
Mass (kg)
RCS (m²)

Purposes: comms

External: N2YO · Heavens-Above · Gunter

§ Orbital elements

Epoch: 2026-09-20T18:56:40.488000Z

Period
93.85 min
Inclination
53.1585°
Eccentricity
0.0001313
Mean motion
15.34418115 rev/d
Perigee alt
461.8 km
Apogee alt
463.5 km
Semi-major
6,840.8 km
B*
2.8555e-4
RAAN
296.6430°
Arg perigee
83.3388°
Mean anomaly
276.7764°
Rev number
7,021

§ Raw data

STARLINK-344891 64679U 25139R   26263.78935750  .00009289  00000+0  28555-3 0  99902 64679  53.1585 296.6430 0001313  83.3388 276.7764 15.34418115 70214

JSON: /api/v1/satellites/64679 · /tle

For live sub-satellite position, see the globe view (requires WebGL).

§ Visibility from observer

Set your observer location to see the next 7 days of passes ≥ 10°. The values pass through the URL so the page stays shareable.

No JS? Fill the form by hand. The geolocation button needs JavaScript.